Location: Newark
(40.9833°N, 0.0333°W)
Time: 01:31:25
(UTC+00:00)

deb Explorer IX - Pass Details

Date: 04 November 2020
Orbit: 537 x 1105 km, 38.8° (Epoch: 02 December)

Event Time Altitude Azimuth Distance (km) Brightness Sun altitude
Rises 06:01:05 0° 274° (W) 3,249 - -6.9°
Exits shadow 06:02:47 - 272° (W) 2,629 ? -6.6°
Reaches altitude 10° 06:03:25 10° 271° (W) 2,405 ? -6.5°
Maximum altitude 06:09:07 64° 191° (SSW) 1,007 ? -5.5°
Drops below altitude 10° 06:15:46 10° 112° (ESE) 2,787 ? -4.3°
Sets 06:18:38 0° 110° (ESE) 3,801 ? -3.7°
